058  
FPUS82 KCHS 140626  
OPUCHS  
 
TEST   
..KCHS/KSAV GATEWAY OBSERVATIONS
 
TEST  
NATIONAL WEATHER SERVICE CHARLESTON SC  
200 AM EDT WED APR 14 2021  
 
NOTE: "FAIR" INDICATES FEW OR NO CLOUDS BELOW 12,000 FEET WITH NO  
SIGNIFICANT WEATHER AND/OR OBSTRUCTIONS TO VISIBILITY.  
 
SCZ050-WAZ558-NCZ071-TXZ119-213-PAZ071-DCZ001-FLZ074-172-MI076-  
NYZ176-178-MAZ016-IL014-TNZ027-NJZ106-GAZ044-MD014-140700-  
   
..GATEWAY OBSERVATIONS FOR CHARLESTON INTERNATIONAL
 
 
 
CITY SKY/WX TMP DP RH WIND PRES REMARKS  
CHAS AIRPORT CLEAR 60 56 86 S5 30.09F  
6HR MIN TEMP: 58; 6HR MAX TEMP: 65;  
 
SEATTLE CLEAR 54 26 34 NE13 30.25S  
6HR MIN TEMP: 53; 6HR MAX TEMP: 62;  
 
CHARLOTTE CLEAR 52 49 89 CALM 30.09S  
6HR MIN TEMP: 52; 6HR MAX TEMP: 69;  
 
DALLAS DFW CLOUDY 68 51 54 N9 29.96S  
6HR MIN TEMP: 68; 6HR MAX TEMP: 77;  
 
DALLAS LOVE LGT RAIN 69 55 60 NE9 29.96S  
6HR MIN TEMP: 69; 6HR MAX TEMP: 80; 6HR PCP: 0.01;  
 
PHILLADELPHIA PTCLDY 49 44 83 S5 30.08F  
6HR MIN TEMP: 48; 6HR MAX TEMP: 61;  
 
WASH NATIONAL PTCLDY 53 49 86 SW7 30.11S  
6HR MIN TEMP: 53; 6HR MAX TEMP: 63;  
 
BALTIMORE CLEAR 50 45 83 SE6 30.09S  
6HR MIN TEMP: 50; 6HR MAX TEMP: 61;  
 
MIAMI PTCLDY 74 67 78 NE5 30.07S  
6HR MIN TEMP: 74; 6HR MAX TEMP: 81;  
 
DETROIT CLEAR 44 31 60 NW7 30.11F  
6HR MIN TEMP: 44; 6HR MAX TEMP: 60;  
 
NEWARK PTCLDY 50 45 83 CALM 30.07S  
6HR MIN TEMP: 50; 6HR MAX TEMP: 62;  
 
LAGUARDIA PTCLDY 50 39 66 S8 30.07F  
6HR MIN TEMP: 50; 6HR MAX TEMP: 62;  
 
J F K MOCLDY 48 40 73 S10 30.09F  
6HR MIN TEMP: 47; 6HR MAX TEMP: 60;  
 
BOSTON LOGAN MOCLDY 48 39 71 SE6 30.08S  
6HR MIN TEMP: 47; 6HR MAX TEMP: 55;  
 
FT. LAUDERDALE CLEAR 75 66 73 NE9 30.06S  
6HR MIN TEMP: 74; 6HR MAX TEMP: 78;  
 
CHICAGO O'HARE PTCLDY 43 27 53 NW14 30.12R  
6HR MIN TEMP: 43; 6HR MAX TEMP: 52;  
 
CHICAGO MIDWAY PTCLDY 45 29 53 NW12 30.12R  
6HR MIN TEMP: 43; 6HR MAX TEMP: 53;  
 
HOUSTON BUSH CLOUDY 71 64 78 SE13 29.96R  
6HR MIN TEMP: 69; 6HR MAX TEMP: 82; 6HR PCP: 0.06;  
 
HOUSTON HOBBY CLOUDY 73 64 73 SE13 29.94S  
6HR MIN TEMP: 72; 6HR MAX TEMP: 81; 6HR PCP: 0.01;  
 
NASHVILLE CLEAR 59 47 64 N6 30.08S  
6HR MIN TEMP: 59; 6HR MAX TEMP: 69; 6HR PCP: TRACE;  
 
ATLANTA PTCLDY 66 45 46 W6 30.08S  
6HR MIN TEMP: 65; 6HR MAX TEMP: 79;  
 
LONDON HEATHRW N/A 41 36 81 S1 30.51R  
 

 
 
GAZ044-118-TXZ119-213-NCZ071-DCZ001-MDZ014-506-PAZ021-071-NJZ106-  
NYZ176-178-MAZ106-OHZ011-021-055-MIZ076-KYZ091-ILZ014-INZ047-  
MNZ060-ONZ431-140700-  
   
..GATEWAY OBSERVATIONS FOR SAVANNAH INTERNATIONAL
 
 
 
CITY SKY/WX TMP DP RH WIND PRES REMARKS  
SAVANNAH ARPT PTCLDY 60 56 86 CALM 30.10S  
6HR MIN TEMP: 58; 6HR MAX TEMP: 68;  
 
ATLANTA PTCLDY 66 45 46 W6 30.08S  
6HR MIN TEMP: 65; 6HR MAX TEMP: 79;  
 
CHARLOTTE CLEAR 52 49 89 CALM 30.09S  
6HR MIN TEMP: 52; 6HR MAX TEMP: 69;  
 
DALLAS DFW CLOUDY 68 51 54 N9 29.96S  
6HR MIN TEMP: 68; 6HR MAX TEMP: 77;  
 
HOUSTON BUSH CLOUDY 71 64 78 SE13 29.96R  
6HR MIN TEMP: 69; 6HR MAX TEMP: 82; 6HR PCP: 0.06;  
 
WASH NATIONAL PTCLDY 53 49 86 SW7 30.11S  
6HR MIN TEMP: 53; 6HR MAX TEMP: 63;  
 
WASH DULLES PTCLDY 51 48 89 CALM 30.09F  
6HR MIN TEMP: 50; 6HR MAX TEMP: 61;  
 
BALTIMORE CLEAR 50 45 83 SE6 30.09S  
6HR MIN TEMP: 50; 6HR MAX TEMP: 61;  
 
PHILADELPHIA PTCLDY 49 44 83 S5 30.08F  
6HR MIN TEMP: 48; 6HR MAX TEMP: 61;  
 
NEWARK PTCLDY 50 45 83 CALM 30.07S  
6HR MIN TEMP: 50; 6HR MAX TEMP: 62;  
 
LAGUARDIA PTCLDY 50 39 66 S8 30.07F  
6HR MIN TEMP: 50; 6HR MAX TEMP: 62;  
 
J F K MOCLDY 48 40 73 S10 30.09F  
6HR MIN TEMP: 47; 6HR MAX TEMP: 60;  
 
BOSTON MOCLDY 48 39 71 SE6 30.08S  
6HR MIN TEMP: 47; 6HR MAX TEMP: 55;  
 
PITTSBURG CLOUDY 54 39 57 N5 30.08S  
6HR MIN TEMP: 52; 6HR MAX TEMP: 64;  
 
AKRON MOCLDY 50 39 66 NW6 30.08S  
6HR MIN TEMP: 50; 6HR MAX TEMP: 60;  
 
CLEVELAND MOCLDY 48 35 60 W6 30.07S  
6HR MIN TEMP: 48; 6HR MAX TEMP: 60;  
 
CINCINNATI PTCLDY 53 38 56 NW6 30.09F  
6HR MIN TEMP: 51; 6HR MAX TEMP: 60;  
 
COLUMBUS PTCLDY 50 40 69 NW5 30.08F  
6HR MIN TEMP: 49; 6HR MAX TEMP: 61;  
 
DETROIT CLEAR 44 31 60 NW7 30.11F  
6HR MIN TEMP: 44; 6HR MAX TEMP: 60;  
 
CHICAGO O'HARE PTCLDY 43 27 53 NW14 30.12R  
6HR MIN TEMP: 43; 6HR MAX TEMP: 52;  
 
MINNEAPOLIS FLURRIES 31 27 85 W9 30.09F WCI 23  
6HR MIN TEMP: 31; 6HR MAX TEMP: 33; 6HR PCP: 0.03;  
 
INDIANAPOLIS CLOUDY 51 34 52 N8 30.12F  
6HR MIN TEMP: 51; 6HR MAX TEMP: 58;  
 
TORONTO CANADA PTCLDY 45 43 93 E6 30.03F  
 

 
 
 
CLICK HERE TO GO TO PREVIOUS BULLETINS.

The Nexlab SC Page
The Nexlab GA Page Main Text Page